BEIDOU-2 G7 (41586 NORAD) Tracking and Keplerian Element Data

This shows tracking and keplerian element data for the satellite.

Feedback or suggestion? Click here.




ElementValue
Catalog41586
NameBEIDOU-2 G7
Epoch Orbit1950
Epoch Day269.8800317
Epoch Year2021
RAAN69.0538
Inclination1.9143
Eccentricity0.0007554
Argument of Perigee13.86
Mean Anonmoly350.3692
Mean Motion1.00272038
Decay Rate-3.55E-06
L11 41586U 16037A 21269.88003170 -.00000355 00000-0 00000-0 0 9992
L22 41586 1.9143 69.0538 0007554 13.8600 350.3692 1.00272038 19500

Live tracking and technical data element details for BEIDOU-2 G7 (NORAD 41586). BEIDOU-2 G7 can be tracked NOW for your location showing map with azimuth and elevation plus other details from your city location.

Track the satellite on the map from your city or location and see movement details for azimuth, elevation, latitude, longitude, range, height, and movement on the map or in text.







IsCatalogInMostPopularTable: catalog: 41586, numindb: 603
Update: records affected: 1



GetName: 41586 BEIDOU-2 G7

Hit Count: updated at: Tue, 28 Sep 2021 17:03:06 GMT